Location: Unspecified
(47.9110°N, 14.3980°E)
Time: 06:27:11
(UTC+00:00)

Okean 3 - Pass Details

Date: 06 August 2020
Orbit: 576 x 601 km, 82.5° (Epoch: 26 September)

Event Time Altitude Azimuth Distance (km) Brightness Sun altitude
Rises 22:28:38 0° 343° (NNW) 2,845 8.3 -25.1°
Reaches altitude 10° 22:30:57 10° 336° (NNW) 1,942 7.1 -25.2°
Enters shadow 22:34:43 39° 276° (W) 909 4.4 -25.3°
